Tracking 19854 objects as of 23-Sep-2019
HD Live streaming from Space Station
objects crossing your sky now

FENGYUN 1C DEB

Track FENGYUN 1C DEB now!
10-day predictions


NORAD ID: 32153
Int'l Code: 1999-025CSX
Perigee: 596.6 km
Apogee: 915.6 km
Inclination: 98.6 °
Period: 99.8 minutes
Semi major axis: 7127 km
RCS: 0.0005 m2 (small)
Launch date: May 10, 1999
Source: People's Republic of China (PRC)
Launch site: Taiyaun Space Center, China (TSC)

Note: This is SATELLITE DEBRIS
aabbcc
Your satellite tracking list
Your tracking list is empty




NASA's NSSDC Master Catalog

Two Line Element Set (TLE):
1 32153U 99025CSX 19263.54821023  .00000105  00000-0  36170-4 0  9992
2 32153  98.5825  17.1292 0223798 211.2682 147.5036 14.42894494643714
Source of the keplerian elements: AFSPC